Voltar ao catálogo

SCOUT G-1 DEB

AtivoPO
NORAD 18365·DEBRIS·🇺🇸 United States

Lançado Sep 16, 1987 de Vandenberg Space Force Base

Loading…

Próximas Passagens (próximas 24 horas)

TLE

AtualizadoSource: Space-Track

Época: Sep 14, 2026, 11:32 UTC

1 18365U 87080E   26257.48084311  .00000289  00000-0  40276-3 0  9998
2 18365  90.3509  72.7712 0106660 148.0321 240.1901 13.53431370919663

Acompanhe SCOUT G-1 DEB em tempo real com AllMySat

Download on the App Store